Year,Month,Day,Hour,Minute,Value (Times are PST for temperature in C)
2012,06,21,00,00,15.40
2012,06,21,00,01,15.40
2012,06,21,00,02,15.40
2012,06,21,00,03,15.30
2012,06,21,00,04,15.30
2012,06,21,00,05,15.30
2012,06,21,00,06,15.30
2012,06,21,00,07,15.20
2012,06,21,00,08,15.20
2012,06,21,00,09,15.20
2012,06,21,00,10,15.20
2012,06,21,00,11,15.10
2012,06,21,00,12,15.10
2012,06,21,00,13,15.10
2012,06,21,00,14,15.10
2012,06,21,00,15,15.10
2012,06,21,00,16,15.00
2012,06,21,00,17,15.00
2012,06,21,00,18,15.00
2012,06,21,00,19,15.00
2012,06,21,00,20,15.00
2012,06,21,00,21,15.00
2012,06,21,00,22,14.90
2012,06,21,00,23,14.90
2012,06,21,00,24,14.90
2012,06,21,00,25,14.90
2012,06,21,00,26,14.90
2012,06,21,00,27,14.90
2012,06,21,00,28,14.90
2012,06,21,00,29,14.90
2012,06,21,00,30,14.90
2012,06,21,00,31,14.90
2012,06,21,00,32,14.90
2012,06,21,00,33,14.90
2012,06,21,00,34,14.90
2012,06,21,00,35,14.90
2012,06,21,00,36,14.90
2012,06,21,00,37,14.90
2012,06,21,00,38,14.80
2012,06,21,00,39,14.80
2012,06,21,00,40,14.80
2012,06,21,00,41,14.80
2012,06,21,00,42,14.90
2012,06,21,00,43,14.90
2012,06,21,00,44,14.90
2012,06,21,00,45,14.90
2012,06,21,00,46,14.90
2012,06,21,00,47,14.90
2012,06,21,00,48,14.90
2012,06,21,00,49,14.90
2012,06,21,00,50,14.90
2012,06,21,00,51,14.90
2012,06,21,00,52,14.90
2012,06,21,00,53,14.90
2012,06,21,00,54,14.90
2012,06,21,00,55,14.90
2012,06,21,00,56,15.00
2012,06,21,00,57,15.00
2012,06,21,00,58,15.00
2012,06,21,00,59,15.00
2012,06,21,01,00,15.00
2012,06,21,01,01,15.10
2012,06,21,01,02,15.10
2012,06,21,01,03,15.00
2012,06,21,01,04,15.00
2012,06,21,01,05,15.00
2012,06,21,01,06,15.00
2012,06,21,01,07,15.00
2012,06,21,01,08,15.00
2012,06,21,01,09,15.00
2012,06,21,01,10,15.00
2012,06,21,01,11,15.00
2012,06,21,01,12,15.00
2012,06,21,01,13,15.00
2012,06,21,01,14,15.00
2012,06,21,01,15,15.00
2012,06,21,01,16,15.00
2012,06,21,01,17,15.00
2012,06,21,01,18,15.00
2012,06,21,01,19,15.00
2012,06,21,01,20,15.00
2012,06,21,01,21,15.00
2012,06,21,01,22,15.00
2012,06,21,01,23,15.00
2012,06,21,01,24,15.00
2012,06,21,01,25,15.10
2012,06,21,01,26,15.10
2012,06,21,01,27,15.10
2012,06,21,01,28,15.10
2012,06,21,01,29,15.10
2012,06,21,01,30,15.00
2012,06,21,01,31,15.00
2012,06,21,01,32,15.00
2012,06,21,01,33,15.00
2012,06,21,01,34,15.00
2012,06,21,01,35,15.00
2012,06,21,01,36,14.90
2012,06,21,01,37,14.90
2012,06,21,01,38,14.90
2012,06,21,01,39,14.90
2012,06,21,01,40,14.90
2012,06,21,01,41,14.90
2012,06,21,01,42,14.90
2012,06,21,01,43,14.90
2012,06,21,01,44,14.80
2012,06,21,01,45,14.80
2012,06,21,01,46,14.80
2012,06,21,01,47,14.80
2012,06,21,01,48,14.80
2012,06,21,01,49,14.80
2012,06,21,01,50,14.80
2012,06,21,01,51,14.80
2012,06,21,01,52,14.70
2012,06,21,01,53,14.70
2012,06,21,01,54,14.70
2012,06,21,01,55,14.70
2012,06,21,01,56,14.70
2012,06,21,01,57,14.70
2012,06,21,01,58,14.70
2012,06,21,01,59,14.60
2012,06,21,02,00,14.60
2012,06,21,02,01,14.60
2012,06,21,02,02,14.60
2012,06,21,02,03,14.60
2012,06,21,02,04,14.60
2012,06,21,02,05,14.60
2012,06,21,02,06,14.60
2012,06,21,02,07,14.60
2012,06,21,02,08,14.60
2012,06,21,02,09,14.60
2012,06,21,02,10,14.60
2012,06,21,02,11,14.60
2012,06,21,02,12,14.60
2012,06,21,02,13,14.60
2012,06,21,02,14,14.60
2012,06,21,02,15,14.60
2012,06,21,02,16,14.60
2012,06,21,02,17,14.60
2012,06,21,02,18,14.50
2012,06,21,02,19,14.50
2012,06,21,02,20,14.50
2012,06,21,02,21,14.50
2012,06,21,02,22,14.50
2012,06,21,02,23,14.50
2012,06,21,02,24,14.50
2012,06,21,02,25,14.50
2012,06,21,02,26,14.50
2012,06,21,02,27,14.40
2012,06,21,02,28,14.40
2012,06,21,02,29,14.40
2012,06,21,02,30,14.40
2012,06,21,02,31,14.40
2012,06,21,02,32,14.40
2012,06,21,02,33,14.40
2012,06,21,02,34,14.30
2012,06,21,02,35,14.30
2012,06,21,02,36,14.30
2012,06,21,02,37,14.30
2012,06,21,02,38,14.30
2012,06,21,02,39,14.30
2012,06,21,02,40,14.30
2012,06,21,02,41,14.30
2012,06,21,02,42,14.20
2012,06,21,02,43,14.20
2012,06,21,02,44,14.20
2012,06,21,02,45,14.20
2012,06,21,02,46,14.20
2012,06,21,02,47,14.20
2012,06,21,02,48,14.20
2012,06,21,02,49,14.20
2012,06,21,02,50,14.20
2012,06,21,02,51,14.20
2012,06,21,02,52,14.20
2012,06,21,02,53,14.20
2012,06,21,02,54,14.10
2012,06,21,02,55,14.10
2012,06,21,02,56,14.10
2012,06,21,02,57,14.10
2012,06,21,02,58,14.10
2012,06,21,02,59,14.00
2012,06,21,03,00,14.00
2012,06,21,03,01,14.00
2012,06,21,03,02,14.00
2012,06,21,03,06,13.90
2012,06,21,03,07,13.90
2012,06,21,03,08,13.90
2012,06,21,03,09,13.90
2012,06,21,03,10,13.90
2012,06,21,03,11,13.90
2012,06,21,03,12,13.80
2012,06,21,03,13,13.80
2012,06,21,03,14,13.80
2012,06,21,03,15,13.80
2012,06,21,03,16,13.80
2012,06,21,03,17,13.80
2012,06,21,03,18,13.70
2012,06,21,03,19,13.70
2012,06,21,03,20,13.80
2012,06,21,03,21,13.80
2012,06,21,03,22,13.80
2012,06,21,03,23,13.70
2012,06,21,03,24,13.70
2012,06,21,03,25,13.70
2012,06,21,03,26,13.70
2012,06,21,03,27,13.70
2012,06,21,03,28,13.80
2012,06,21,03,29,13.80
2012,06,21,03,30,13.80
2012,06,21,03,31,13.80
2012,06,21,03,32,13.80
2012,06,21,03,33,13.80
2012,06,21,03,34,13.80
2012,06,21,03,35,13.80
2012,06,21,03,36,13.80
2012,06,21,03,37,13.80
2012,06,21,03,38,13.80
2012,06,21,03,39,13.80
2012,06,21,03,40,13.80
2012,06,21,03,41,13.80
2012,06,21,03,42,13.80
2012,06,21,03,43,13.80
2012,06,21,03,44,13.80
2012,06,21,03,45,13.80
2012,06,21,03,46,13.80
2012,06,21,03,47,13.80
2012,06,21,03,48,13.80
2012,06,21,03,49,13.80
2012,06,21,03,50,13.80
2012,06,21,03,51,13.80
2012,06,21,03,52,13.80
2012,06,21,03,53,13.80
2012,06,21,03,54,13.80
2012,06,21,03,55,13.70
2012,06,21,03,56,13.70
2012,06,21,03,57,13.70
2012,06,21,03,58,13.70
2012,06,21,03,59,13.70
2012,06,21,04,00,13.70
2012,06,21,04,01,13.70
2012,06,21,04,02,13.70
2012,06,21,04,03,13.70
2012,06,21,04,04,13.60
2012,06,21,04,05,13.60
2012,06,21,04,06,13.60
2012,06,21,04,07,13.60
2012,06,21,04,08,13.60
2012,06,21,04,09,13.50
2012,06,21,04,10,13.50
2012,06,21,04,11,13.50
2012,06,21,04,12,13.40
2012,06,21,04,13,13.40
2012,06,21,04,14,13.30
2012,06,21,04,15,13.30
2012,06,21,04,16,13.20
2012,06,21,04,17,13.20
2012,06,21,04,18,13.20
2012,06,21,04,19,13.20
2012,06,21,04,20,13.10
2012,06,21,04,21,13.10
2012,06,21,04,22,13.10
2012,06,21,04,23,13.10
2012,06,21,04,24,13.10
2012,06,21,04,25,13.10
2012,06,21,04,26,13.10
2012,06,21,04,27,13.10
2012,06,21,04,28,13.10
2012,06,21,04,29,13.10
2012,06,21,04,30,13.10
2012,06,21,04,31,13.10
2012,06,21,04,32,13.10
2012,06,21,04,33,13.10
2012,06,21,04,34,13.10
2012,06,21,04,35,13.10
2012,06,21,04,36,13.10
2012,06,21,04,37,13.10
2012,06,21,04,38,13.10
2012,06,21,04,39,13.00
2012,06,21,04,40,13.00
2012,06,21,04,41,13.00
2012,06,21,04,42,12.90
2012,06,21,04,43,12.90
2012,06,21,04,44,12.90
2012,06,21,04,45,12.90
2012,06,21,04,46,12.90
2012,06,21,04,47,12.90
2012,06,21,04,48,12.90
2012,06,21,04,49,12.90
2012,06,21,04,50,12.90
2012,06,21,04,51,12.90
2012,06,21,04,52,12.90
2012,06,21,04,53,12.90
2012,06,21,04,54,12.80
2012,06,21,04,55,12.80
2012,06,21,04,56,12.80
2012,06,21,04,57,12.80
2012,06,21,04,58,12.80
2012,06,21,04,59,12.70
2012,06,21,05,00,12.70
2012,06,21,05,01,12.70
2012,06,21,05,02,12.70
2012,06,21,05,03,12.70
2012,06,21,05,04,12.70
2012,06,21,05,05,12.60
2012,06,21,05,06,12.60
2012,06,21,05,07,12.60
2012,06,21,05,08,12.60
2012,06,21,05,09,12.50
2012,06,21,05,10,12.50
2012,06,21,05,11,12.50
2012,06,21,05,12,12.40
2012,06,21,05,13,12.40
2012,06,21,05,14,12.40
2012,06,21,05,15,12.40
2012,06,21,05,16,12.40
2012,06,21,05,17,12.40
2012,06,21,05,18,12.40
2012,06,21,05,19,12.40
2012,06,21,05,20,12.40
2012,06,21,05,21,12.40
2012,06,21,05,22,12.30
2012,06,21,05,23,12.30
2012,06,21,05,24,12.30
2012,06,21,05,25,12.30
2012,06,21,05,26,12.30
2012,06,21,05,27,12.30
2012,06,21,05,28,12.30
2012,06,21,05,29,12.30
2012,06,21,05,30,12.30
2012,06,21,05,31,12.30
2012,06,21,05,32,12.30
2012,06,21,05,33,12.30
2012,06,21,05,34,12.30
2012,06,21,05,35,12.30
2012,06,21,05,36,12.30
2012,06,21,05,37,12.30
2012,06,21,05,38,12.30
2012,06,21,05,39,12.30
2012,06,21,05,40,12.30
2012,06,21,05,41,12.30
2012,06,21,05,42,12.30
2012,06,21,05,43,12.30
2012,06,21,05,44,12.30
2012,06,21,05,45,12.30
2012,06,21,05,46,12.30
2012,06,21,05,47,12.30
2012,06,21,05,48,12.20
2012,06,21,05,49,12.20
2012,06,21,05,50,12.20
2012,06,21,05,51,12.20
2012,06,21,05,52,12.20
2012,06,21,05,53,12.20
2012,06,21,05,54,12.20
2012,06,21,05,55,12.30
2012,06,21,05,56,12.30
2012,06,21,05,57,12.30
2012,06,21,05,58,12.30
2012,06,21,05,59,12.30
2012,06,21,06,00,12.30
2012,06,21,06,01,12.30
2012,06,21,06,02,12.30
2012,06,21,06,03,12.30
2012,06,21,06,04,12.30
2012,06,21,06,05,12.30
2012,06,21,06,06,12.30
2012,06,21,06,07,12.30
2012,06,21,06,08,12.30
2012,06,21,06,09,12.30
2012,06,21,06,10,12.30
2012,06,21,06,11,12.30
2012,06,21,06,12,12.30
2012,06,21,06,13,12.30
2012,06,21,06,14,12.40
2012,06,21,06,15,12.40
2012,06,21,06,16,12.30
2012,06,21,06,17,12.30
2012,06,21,06,18,12.30
2012,06,21,06,19,12.30
2012,06,21,06,20,12.30
2012,06,21,06,21,12.30
2012,06,21,06,22,12.30
2012,06,21,06,23,12.30
2012,06,21,06,24,12.30
2012,06,21,06,25,12.30
2012,06,21,06,26,12.30
2012,06,21,06,27,12.30
2012,06,21,06,28,12.30
2012,06,21,06,29,12.30
2012,06,21,06,30,12.30
2012,06,21,06,31,12.30
2012,06,21,06,32,12.30
2012,06,21,06,33,12.30
2012,06,21,06,34,12.30
2012,06,21,06,35,12.30
2012,06,21,06,36,12.30
2012,06,21,06,37,12.30
2012,06,21,06,38,12.30
2012,06,21,06,39,12.40
2012,06,21,06,40,12.40
2012,06,21,06,41,12.40
2012,06,21,06,42,12.40
2012,06,21,06,43,12.40
2012,06,21,06,44,12.40
2012,06,21,06,45,12.40
2012,06,21,06,46,12.50
2012,06,21,06,47,12.50
2012,06,21,06,48,12.50
2012,06,21,06,49,12.50
2012,06,21,06,50,12.60
2012,06,21,06,51,12.60
2012,06,21,06,52,12.60
2012,06,21,06,53,12.60
2012,06,21,06,54,12.70
2012,06,21,06,55,12.70
2012,06,21,06,56,12.70
2012,06,21,06,57,12.70
2012,06,21,06,58,12.70
2012,06,21,06,59,12.80
2012,06,21,07,00,12.80
2012,06,21,07,01,12.80
2012,06,21,07,02,12.80
2012,06,21,07,03,12.80
2012,06,21,07,04,12.80
2012,06,21,07,05,12.90
2012,06,21,07,06,12.90
2012,06,21,07,07,12.90
2012,06,21,07,08,12.90
2012,06,21,07,09,12.90
2012,06,21,07,10,13.00
2012,06,21,07,11,13.00
2012,06,21,07,12,13.00
2012,06,21,07,13,13.10
2012,06,21,07,14,13.10
2012,06,21,07,15,13.10
2012,06,21,07,16,13.20
2012,06,21,07,17,13.20
2012,06,21,07,18,13.20
2012,06,21,07,19,13.30
2012,06,21,07,20,13.30
2012,06,21,07,21,13.30
2012,06,21,07,22,13.40
2012,06,21,07,23,13.40
2012,06,21,07,24,13.40
2012,06,21,07,25,13.50
2012,06,21,07,26,13.60
2012,06,21,07,27,13.60
2012,06,21,07,28,13.60
2012,06,21,07,29,13.70
2012,06,21,07,30,13.80
2012,06,21,07,31,13.80
2012,06,21,07,32,13.80
2012,06,21,07,33,13.90
2012,06,21,07,34,13.90
2012,06,21,07,35,13.90
2012,06,21,07,36,14.00
2012,06,21,07,37,14.00
2012,06,21,07,38,14.10
2012,06,21,07,39,14.10
2012,06,21,07,40,14.20
2012,06,21,07,41,14.20
2012,06,21,07,42,14.30
2012,06,21,07,43,14.30
2012,06,21,07,44,14.30
2012,06,21,07,45,14.30
2012,06,21,07,46,14.40
2012,06,21,07,47,14.40
2012,06,21,07,48,14.50
2012,06,21,07,49,14.50
2012,06,21,07,50,14.60
2012,06,21,07,51,14.60
2012,06,21,07,52,14.70
2012,06,21,07,53,14.80
2012,06,21,07,54,14.80
2012,06,21,07,55,14.90
2012,06,21,07,56,14.90
2012,06,21,07,57,15.00
2012,06,21,07,58,15.00
2012,06,21,07,59,15.10
2012,06,21,08,00,15.10
2012,06,21,08,01,15.10
2012,06,21,08,02,15.20
2012,06,21,08,03,15.20
2012,06,21,08,04,15.20
2012,06,21,08,05,15.30
2012,06,21,08,06,15.30
2012,06,21,08,07,15.40
2012,06,21,08,08,15.40
2012,06,21,08,09,15.50
2012,06,21,08,10,15.50
2012,06,21,08,11,15.60
2012,06,21,08,12,15.70
2012,06,21,08,13,15.70
2012,06,21,08,14,15.80
2012,06,21,08,15,15.90
2012,06,21,08,16,15.90
2012,06,21,08,17,16.00
2012,06,21,08,19,16.20
2012,06,21,08,20,16.20
2012,06,21,08,21,16.30
2012,06,21,08,22,16.30
2012,06,21,08,23,16.40
2012,06,21,08,24,16.40
2012,06,21,08,25,16.40
2012,06,21,08,26,16.50
2012,06,21,08,27,16.50
2012,06,21,08,28,16.60
2012,06,21,08,29,16.70
2012,06,21,08,30,16.80
2012,06,21,08,31,16.90
2012,06,21,08,32,17.00
2012,06,21,08,33,17.10
2012,06,21,08,34,17.30
2012,06,21,08,35,17.40
2012,06,21,08,36,17.50
2012,06,21,08,37,17.60
2012,06,21,08,38,17.70
2012,06,21,08,39,17.80
2012,06,21,08,40,17.80
2012,06,21,08,41,17.90
2012,06,21,08,42,17.90
2012,06,21,08,43,17.90
2012,06,21,08,44,18.00
2012,06,21,08,45,18.00
2012,06,21,08,46,18.00
2012,06,21,08,47,18.00
2012,06,21,08,48,18.00
2012,06,21,08,49,18.10
2012,06,21,08,50,18.10
2012,06,21,08,51,18.20
2012,06,21,08,52,18.20
2012,06,21,08,53,18.20
2012,06,21,08,54,18.20
2012,06,21,08,55,18.20
2012,06,21,08,56,18.20
2012,06,21,08,57,18.20
2012,06,21,08,58,18.20
2012,06,21,08,59,18.30
2012,06,21,09,00,18.30
2012,06,21,09,01,18.20
2012,06,21,09,02,18.30
2012,06,21,09,03,18.40
2012,06,21,09,04,18.40
2012,06,21,09,05,18.50
2012,06,21,09,06,18.50
2012,06,21,09,07,18.50
2012,06,21,09,08,18.40
2012,06,21,09,09,18.40
2012,06,21,09,10,18.50
2012,06,21,09,11,18.50
2012,06,21,09,12,18.60
2012,06,21,09,13,18.60
2012,06,21,09,14,18.60
2012,06,21,09,15,18.60
2012,06,21,09,16,18.60
2012,06,21,09,17,18.60
2012,06,21,09,18,18.60
2012,06,21,09,19,18.60
2012,06,21,09,20,18.60
2012,06,21,09,21,18.60
2012,06,21,09,22,18.60
2012,06,21,09,23,18.70
2012,06,21,09,24,18.80
2012,06,21,09,25,18.80
2012,06,21,09,26,18.90
2012,06,21,09,27,18.90
2012,06,21,09,28,19.00
2012,06,21,09,29,19.00
2012,06,21,09,30,19.00
2012,06,21,09,31,19.00
2012,06,21,09,32,19.00
2012,06,21,09,33,19.00
2012,06,21,09,34,19.00
2012,06,21,09,35,19.00
2012,06,21,09,36,19.00
2012,06,21,09,37,19.00
2012,06,21,09,38,18.90
2012,06,21,09,39,18.90
2012,06,21,09,40,18.90
2012,06,21,09,41,18.90
2012,06,21,09,42,18.90
2012,06,21,09,43,18.90
2012,06,21,09,44,18.90
2012,06,21,09,45,18.90
2012,06,21,09,46,18.90
2012,06,21,09,47,18.90
2012,06,21,09,48,19.00
2012,06,21,09,49,18.90
2012,06,21,09,50,18.90
2012,06,21,09,51,18.90
2012,06,21,09,52,19.00
2012,06,21,09,53,19.00
2012,06,21,09,54,19.00
2012,06,21,09,55,19.00
2012,06,21,09,56,19.00
2012,06,21,09,57,19.00
2012,06,21,09,58,18.90
2012,06,21,09,59,18.90
2012,06,21,10,00,18.90
2012,06,21,10,01,18.90
2012,06,21,10,02,18.90
2012,06,21,10,03,19.00
2012,06,21,10,04,18.90
2012,06,21,10,05,19.00
2012,06,21,10,06,19.00
2012,06,21,10,07,19.00
2012,06,21,10,08,19.00
2012,06,21,10,09,19.10
2012,06,21,10,10,19.10
2012,06,21,10,11,19.10
2012,06,21,10,12,19.20
2012,06,21,10,13,19.20
2012,06,21,10,14,19.20
2012,06,21,10,15,19.10
2012,06,21,10,16,19.10
2012,06,21,10,17,19.10
2012,06,21,10,18,19.10
2012,06,21,10,19,19.10
2012,06,21,10,20,19.10
2012,06,21,10,21,19.10
2012,06,21,10,22,19.10
2012,06,21,10,23,19.10
2012,06,21,10,24,19.20
2012,06,21,10,25,19.20
2012,06,21,10,26,19.20
2012,06,21,10,27,19.20
2012,06,21,10,28,19.20
2012,06,21,10,29,19.20
2012,06,21,10,30,19.20
2012,06,21,10,31,19.20
2012,06,21,10,32,19.10
2012,06,21,10,33,19.10
2012,06,21,10,34,19.10
2012,06,21,10,35,19.10
2012,06,21,10,36,19.20
2012,06,21,10,37,19.20
2012,06,21,10,38,19.20
2012,06,21,10,39,19.30
2012,06,21,10,40,19.40
2012,06,21,10,41,19.50
2012,06,21,10,42,19.60
2012,06,21,10,43,19.70
2012,06,21,10,44,19.70
2012,06,21,10,45,19.70
2012,06,21,10,46,19.60
2012,06,21,10,47,19.50
2012,06,21,10,48,19.40
2012,06,21,10,49,19.30
2012,06,21,10,50,19.20
2012,06,21,10,51,19.10
2012,06,21,10,52,19.10
2012,06,21,10,53,19.00
2012,06,21,10,54,19.10
2012,06,21,10,55,19.10
2012,06,21,10,56,19.10
2012,06,21,10,57,19.10
2012,06,21,10,58,19.00
2012,06,21,10,59,18.90
2012,06,21,11,00,18.80
2012,06,21,11,01,18.70
2012,06,21,11,02,18.70
2012,06,21,11,03,18.70
2012,06,21,11,04,18.60
2012,06,21,11,05,18.60
2012,06,21,11,06,18.60
2012,06,21,11,07,18.70
2012,06,21,11,08,18.70
2012,06,21,11,09,18.80
2012,06,21,11,10,18.90
2012,06,21,11,11,18.90
2012,06,21,11,12,18.90
2012,06,21,11,13,18.90
2012,06,21,11,14,18.90
2012,06,21,11,15,19.00
2012,06,21,11,16,19.00
2012,06,21,11,17,19.10
2012,06,21,11,18,19.10
2012,06,21,11,19,19.10
2012,06,21,11,20,19.10
2012,06,21,11,21,19.10
2012,06,21,11,22,19.10
2012,06,21,11,23,19.10
2012,06,21,11,24,19.10
2012,06,21,11,25,19.10
2012,06,21,11,26,19.20
2012,06,21,11,27,19.20
2012,06,21,11,28,19.30
2012,06,21,11,29,19.40
2012,06,21,11,30,19.50
2012,06,21,11,31,19.60
2012,06,21,11,32,19.70
2012,06,21,11,33,19.80
2012,06,21,11,34,19.90
2012,06,21,11,35,19.90
2012,06,21,11,36,20.00
2012,06,21,11,37,20.00
2012,06,21,11,38,19.90
2012,06,21,11,39,19.90
2012,06,21,11,40,19.80
2012,06,21,11,41,19.80
2012,06,21,11,42,19.80
2012,06,21,11,43,19.80
2012,06,21,11,44,19.80
2012,06,21,11,45,19.80
2012,06,21,11,46,19.90
2012,06,21,11,47,19.90
2012,06,21,11,48,19.90
2012,06,21,11,49,19.90
2012,06,21,11,50,19.80
2012,06,21,11,51,19.80
2012,06,21,11,52,19.90
2012,06,21,11,53,20.00
2012,06,21,11,54,20.10
2012,06,21,11,55,20.10
2012,06,21,11,56,20.10
2012,06,21,11,57,20.20
2012,06,21,11,58,20.20
2012,06,21,11,59,20.20
2012,06,21,12,00,20.10
2012,06,21,12,01,20.10
2012,06,21,12,02,20.10
2012,06,21,12,03,20.00
2012,06,21,12,04,19.90
2012,06,21,12,05,19.90
2012,06,21,12,06,19.90
2012,06,21,12,07,19.90
2012,06,21,12,08,19.90
2012,06,21,12,09,19.90
2012,06,21,12,10,19.90
2012,06,21,12,11,19.90
2012,06,21,12,12,19.90
2012,06,21,12,13,20.00
2012,06,21,12,14,20.10
2012,06,21,12,15,20.20
2012,06,21,12,16,20.20
2012,06,21,12,17,20.30
2012,06,21,12,18,20.30
2012,06,21,12,19,20.10
2012,06,21,12,20,20.00
2012,06,21,12,21,19.80
2012,06,21,12,22,19.60
2012,06,21,12,23,19.40
2012,06,21,12,24,19.30
2012,06,21,12,25,19.30
2012,06,21,12,26,19.30
2012,06,21,12,27,19.30
2012,06,21,12,28,19.20
2012,06,21,12,29,19.20
2012,06,21,12,30,19.20
2012,06,21,12,31,19.20
2012,06,21,12,32,19.20
2012,06,21,12,33,19.30
2012,06,21,12,34,19.30
2012,06,21,12,35,19.30
2012,06,21,12,36,19.30
2012,06,21,12,37,19.40
2012,06,21,12,38,19.40
2012,06,21,12,39,19.40
2012,06,21,12,40,19.30
2012,06,21,12,41,19.30
2012,06,21,12,42,19.30
2012,06,21,12,43,19.20
2012,06,21,12,44,19.20
2012,06,21,12,45,19.20
2012,06,21,12,46,19.30
2012,06,21,12,47,19.40
2012,06,21,12,48,19.50
2012,06,21,12,49,19.60
2012,06,21,12,50,19.70
2012,06,21,12,51,19.80
2012,06,21,12,52,19.80
2012,06,21,12,53,19.80
2012,06,21,12,54,19.70
2012,06,21,12,55,19.70
2012,06,21,12,56,19.80
2012,06,21,12,57,19.80
2012,06,21,12,58,19.80
2012,06,21,12,59,19.90
2012,06,21,13,00,19.90
2012,06,21,13,01,20.00
2012,06,21,13,02,20.10
2012,06,21,13,03,20.10
2012,06,21,13,04,20.10
2012,06,21,13,05,20.20
2012,06,21,13,06,20.20
2012,06,21,13,07,20.20
2012,06,21,13,08,20.30
2012,06,21,13,09,20.30
2012,06,21,13,10,20.30
2012,06,21,13,11,20.40
2012,06,21,13,12,20.50
2012,06,21,13,13,20.50
2012,06,21,13,14,20.50
2012,06,21,13,15,20.60
2012,06,21,13,16,20.60
2012,06,21,13,17,20.60
2012,06,21,13,18,20.50
2012,06,21,13,19,20.50
2012,06,21,13,20,20.40
2012,06,21,13,21,20.40
2012,06,21,13,22,20.30
2012,06,21,13,23,20.30
2012,06,21,13,24,20.20
2012,06,21,13,25,20.20
2012,06,21,13,26,20.20
2012,06,21,13,27,20.20
2012,06,21,13,28,20.30
2012,06,21,13,29,20.30
2012,06,21,13,30,20.30
2012,06,21,13,31,20.20
2012,06,21,13,32,20.20
2012,06,21,13,33,20.20
2012,06,21,13,34,20.20
2012,06,21,13,35,20.20
2012,06,21,13,36,20.20
2012,06,21,13,37,20.30
2012,06,21,13,38,20.30
2012,06,21,13,39,20.40
2012,06,21,13,40,20.50
2012,06,21,13,41,20.70
2012,06,21,13,42,20.80
2012,06,21,13,43,21.00
2012,06,21,13,44,21.10
2012,06,21,13,45,21.10
2012,06,21,13,46,21.10
2012,06,21,13,47,21.20
2012,06,21,13,48,21.30
2012,06,21,13,49,21.30
2012,06,21,13,50,21.30
2012,06,21,13,51,21.30
2012,06,21,13,52,21.40
2012,06,21,13,53,21.40
2012,06,21,13,54,21.40
2012,06,21,13,55,21.20
2012,06,21,13,56,21.00
2012,06,21,13,57,20.90
2012,06,21,13,58,20.80
2012,06,21,13,59,20.80
2012,06,21,14,00,20.80
2012,06,21,14,01,20.80
2012,06,21,14,02,20.80
2012,06,21,14,03,20.90
2012,06,21,14,04,20.90
2012,06,21,14,05,20.90
2012,06,21,14,06,20.90
2012,06,21,14,07,20.80
2012,06,21,14,08,20.70
2012,06,21,14,09,20.60
2012,06,21,14,10,20.60
2012,06,21,14,11,20.50
2012,06,21,14,12,20.40
2012,06,21,14,13,20.30
2012,06,21,14,14,20.30
2012,06,21,14,15,20.20
2012,06,21,14,16,20.20
2012,06,21,14,17,20.10
2012,06,21,14,18,20.00
2012,06,21,14,19,20.00
2012,06,21,14,20,19.90
2012,06,21,14,21,19.90
2012,06,21,14,22,19.80
2012,06,21,14,23,19.80
2012,06,21,14,24,19.80
2012,06,21,14,25,19.80
2012,06,21,14,26,19.90
2012,06,21,14,27,19.90
2012,06,21,14,28,19.90
2012,06,21,14,29,19.90
2012,06,21,14,30,20.00
2012,06,21,14,31,20.10
2012,06,21,14,32,20.10
2012,06,21,14,33,20.10
2012,06,21,14,34,20.10
2012,06,21,14,35,20.00
2012,06,21,14,36,20.00
2012,06,21,14,37,19.90
2012,06,21,14,38,19.90
2012,06,21,14,39,20.00
2012,06,21,14,40,20.00
2012,06,21,14,41,20.10
2012,06,21,14,42,20.10
2012,06,21,14,43,20.10
2012,06,21,14,44,20.10
2012,06,21,14,45,20.10
2012,06,21,14,46,20.10
2012,06,21,14,47,20.20
2012,06,21,14,48,20.30
2012,06,21,14,49,20.40
2012,06,21,14,50,20.50
2012,06,21,14,51,20.50
2012,06,21,14,52,20.40
2012,06,21,14,53,20.30
2012,06,21,14,54,20.30
2012,06,21,14,55,20.30
2012,06,21,14,56,20.30
2012,06,21,14,57,20.30
2012,06,21,14,58,20.40
2012,06,21,14,59,20.40
2012,06,21,15,00,20.50
2012,06,21,15,01,20.50
2012,06,21,15,02,20.60
2012,06,21,15,03,20.60
2012,06,21,15,04,20.60
2012,06,21,15,05,20.50
2012,06,21,15,06,20.60
2012,06,21,15,07,20.60
2012,06,21,15,08,20.70
2012,06,21,15,09,20.80
2012,06,21,15,10,20.90
2012,06,21,15,11,20.90
2012,06,21,15,12,20.90
2012,06,21,15,13,20.90
2012,06,21,15,14,20.80
2012,06,21,15,15,20.80
2012,06,21,15,16,20.70
2012,06,21,15,17,20.60
2012,06,21,15,18,20.50
2012,06,21,15,19,20.30
2012,06,21,15,20,20.20
2012,06,21,15,21,20.10
2012,06,21,15,22,20.00
2012,06,21,15,23,19.90
2012,06,21,15,24,19.80
2012,06,21,15,25,19.70
2012,06,21,15,26,19.60
2012,06,21,15,27,19.50
2012,06,21,15,28,19.40
2012,06,21,15,29,19.30
2012,06,21,15,30,19.20
2012,06,21,15,31,19.20
2012,06,21,15,32,19.20
2012,06,21,15,33,19.20
2012,06,21,15,34,19.20
2012,06,21,15,35,19.10
2012,06,21,15,36,19.00
2012,06,21,15,37,19.00
2012,06,21,15,38,18.90
2012,06,21,15,39,18.90
2012,06,21,15,40,19.00
2012,06,21,15,41,19.00
2012,06,21,15,42,19.10
2012,06,21,15,43,19.10
2012,06,21,15,44,19.20
2012,06,21,15,45,19.20
2012,06,21,15,46,19.20
2012,06,21,15,47,19.30
2012,06,21,15,48,19.30
2012,06,21,15,49,19.30
2012,06,21,15,50,19.30
2012,06,21,15,51,19.40
2012,06,21,15,52,19.50
2012,06,21,15,53,19.50
2012,06,21,15,54,19.50
2012,06,21,15,55,19.50
2012,06,21,15,56,19.60
2012,06,21,15,57,19.60
2012,06,21,15,58,19.60
2012,06,21,15,59,19.60
2012,06,21,16,00,19.60
2012,06,21,16,01,19.60
2012,06,21,16,02,19.60
2012,06,21,16,03,19.60
2012,06,21,16,04,19.60
2012,06,21,16,05,19.70
2012,06,21,16,06,19.80
2012,06,21,16,07,19.90
2012,06,21,16,08,20.00
2012,06,21,16,09,20.00
2012,06,21,16,10,20.00
2012,06,21,16,11,20.00
2012,06,21,16,12,19.90
2012,06,21,16,13,19.80
2012,06,21,16,14,19.80
2012,06,21,16,15,19.80
2012,06,21,16,16,19.80
2012,06,21,16,17,19.80
2012,06,21,16,18,19.80
2012,06,21,16,19,19.90
2012,06,21,16,20,19.90
2012,06,21,16,21,19.90
2012,06,21,16,22,20.00
2012,06,21,16,23,20.10
2012,06,21,16,24,20.10
2012,06,21,16,25,20.10
2012,06,21,16,26,20.10
2012,06,21,16,27,20.00
2012,06,21,16,28,20.00
2012,06,21,16,29,20.00
2012,06,21,16,30,20.00
2012,06,21,16,31,20.00
2012,06,21,16,32,20.00
2012,06,21,16,33,19.90
2012,06,21,16,34,19.90
2012,06,21,16,35,19.90
2012,06,21,16,36,19.80
2012,06,21,16,37,19.80
2012,06,21,16,38,19.80
2012,06,21,16,39,19.80
2012,06,21,16,40,19.80
2012,06,21,16,41,19.80
2012,06,21,16,42,19.80
2012,06,21,16,43,19.80
2012,06,21,16,44,19.80
2012,06,21,16,45,19.80
2012,06,21,16,46,19.80
2012,06,21,16,47,19.80
2012,06,21,16,48,19.80
2012,06,21,16,49,19.80
2012,06,21,16,50,19.80
2012,06,21,16,51,19.80
2012,06,21,16,52,19.80
2012,06,21,16,53,19.90
2012,06,21,16,54,19.80
2012,06,21,16,55,19.80
2012,06,21,16,56,19.80
2012,06,21,16,57,19.80
2012,06,21,16,58,19.80
2012,06,21,16,59,19.80
2012,06,21,17,00,19.80
2012,06,21,17,01,19.80
2012,06,21,17,02,19.80
2012,06,21,17,03,19.80
2012,06,21,17,04,19.80
2012,06,21,17,05,19.80
2012,06,21,17,06,19.80
2012,06,21,17,07,19.80
2012,06,21,17,08,19.80
2012,06,21,17,09,19.80
2012,06,21,17,10,19.80
2012,06,21,17,11,19.80
2012,06,21,17,12,19.80
2012,06,21,17,13,19.80
2012,06,21,17,14,19.70
2012,06,21,17,15,19.70
2012,06,21,17,16,19.60
2012,06,21,17,17,19.50
2012,06,21,17,18,19.40
2012,06,21,17,19,19.30
2012,06,21,17,20,19.30
2012,06,21,17,21,19.20
2012,06,21,17,22,19.10
2012,06,21,17,23,19.10